User: anonymous   Login
Location: Unspecified
(0.0000°N, 0.0000°E)
Time: 19:04:18
(UTC+00:00)
Language:

STARLINK-34632 - Orbit

View from above orbital plane
View from above orbital plane
View from above satellite
View from above satellite

Ground track
Ground track

The orbit is defined by the following mean orbital elements,

1 64792U          26145.38609198 +.00000000 +00000-0 +29485-3 0 00004
2 64792  70.0002 301.0189 0002804 264.2823  95.8017 14.98339358    05
Epoch (UTC): 25 May 2026 09:15:58
Eccentricity: 0.0002804
inclination: 70.0002°
perigee height: 570 km
apogee height: 574 km
right ascension of ascending node: 301.0189°
argument of perigee: 264.2823°
revolutions per day: 14.98339358
mean anomaly at epoch: 95.8017°

The dashed part of the orbit path shows where the satellite is in the earth's shadow,  

DLR